DW7780 Weather Reports


time (UTC)temp
F
wind
direction
speed
knots
gust
knots
rain 1hr
in
rain 24hr
in
rain mn
in
humidity
%
barometer
mb
20260510160035 70 0 0.0 0.0 0.00 0.07 0.01 65 1012.7
20260510154530 69 0 0.0 0.0 0.00 0.07 0.01 73 1013.0
20260510153032 67 0 0.0 0.0 0.00 0.07 0.01 75 1013.1
20260510151527 65 0 0.0 0.0 0.00 0.07 0.01 82 1013.1
20260510150030 63 0 0.0 0.0 0.00 0.07 0.01 83 1013.3
20260510144533 62 0 0.0 0.0 0.00 0.07 0.01 84 1013.2
20260510143028 60 0 0.0 0.0 0.00 0.07 0.01 88 1013.2
20260510141527 59 0 0.0 0.0 0.00 0.07 0.01 90 1013.2
20260510140028 58 0 0.0 0.0 0.00 0.07 0.01 92 1013.1
20260510134530 56 0 0.0 0.0 0.00 0.07 0.01 94 1013.0
20260510133034 55 0 0.0 0.0 0.00 0.07 0.01 96 1013.1
20260510131535 54 0 0.0 2.6 0.00 0.07 0.01 97 1013.0
20260510130028 53 0 0.0 0.0 0.00 0.07 0.01 97 1013.3
20260510124526 52 0 0.0 0.0 0.00 0.07 0.01 97 1013.2
20260510123030 52 0 0.0 0.0 0.00 0.07 0.01 97 1013.0
20260510121532 52 0 0.0 0.0 0.00 0.07 0.01 97 1012.7
20260510120030 52 0 0.0 0.0 0.00 0.07 0.01 97 1012.4
20260510114545 51 0 0.0 0.0 0.00 0.07 0.01 97 1012.4
20260510113039 51 0 0.0 0.0 0.00 0.07 0.01 97 1012.2
20260510111533 51 0 0.0 0.0 0.00 0.07 0.01 97 1012.1
20260510110037 50 0 0.0 0.0 0.00 0.07 0.01 97 1012.0
20260510104528 50 0 0.0 0.0 0.00 0.07 0.01 96 1012.0
20260510103027 50 0 0.0 0.0 0.00 0.07 0.01 96 1011.7
20260510101528 50 0 0.0 0.0 0.00 0.07 0.01 96 1011.6
20260510100033 50 0 0.0 0.0 0.00 0.07 0.01 96 1011.7
20260510094535 50 0 0.0 0.0 0.00 0.07 0.01 96 1011.5
20260510093030 50 0 0.0 0.0 0.00 0.07 0.01 96 1011.3
20260510091529 50 0 0.0 0.0 0.00 0.07 0.01 96 1011.3
20260510090029 50 0 0.0 0.0 0.00 0.07 0.01 96 1011.5
20260510084527 50 0 0.0 2.6 0.00 0.07 0.01 96 1011.7
20260510083030 49 0 0.0 1.7 0.01 0.07 0.01 96 1011.5
20260510081528 49 0 0.0 2.6 0.01 0.07 0.01 96 1011.3
20260510080027 49 0 0.0 0.0 0.01 0.07 0.01 96 1010.9
20260510074536 50 0 0.0 0.0 0.01 0.07 0.01 96 1010.9
20260510073028 50 0 0.0 0.0 0.00 0.06 0.00 96 1010.8
20260510071528 50 0 0.0 0.0 0.00 0.06 0.00 96 1010.8
20260510070033 50 0 0.0 0.0 0.00 0.06 0.00 96 1010.9
20260510064526 50 0 0.0 0.0 0.00 0.06 0.00 96 1010.8
20260510063027 50 0 0.0 0.0 0.00 0.06 0.00 96 1010.5
20260510061530 50 0 0.0 0.0 0.00 0.06 0.00 96 1010.4
20260510060033 50 0 0.0 0.0 0.00 0.06 0.00 96 1010.7
20260510054531 50 0 0.0 0.0 0.00 0.06 0.00 96 1010.7
20260510053029 50 0 0.0 0.0 0.00 0.06 0.00 96 1010.8
20260510051526 49 0 0.0 0.0 0.00 0.06 0.00 96 1010.8
20260510050031 49 0 0.0 0.0 0.00 0.06 0.00 96 1010.9
20260510044530 49 0 0.0 0.0 0.00 0.06 0.00 96 1011.0
20260510043028 49 0 0.0 0.0 0.00 0.06 0.00 96 1011.1
20260510041532 49 0 0.0 0.0 0.00 0.06 0.00 95 1011.1
20260510040027 49 0 0.0 0.0 0.00 0.06 0.00 95 1011.1
20260510034530 49 0 0.0 0.0 0.00 0.06 0.06 95 1010.9
20260510033028 49 0 0.0 0.0 0.00 0.06 0.06 95 1011.0
20260510031530 48 0 0.0 0.0 0.00 0.06 0.06 95 1010.8
20260510030029 48 0 0.0 0.0 0.00 0.06 0.06 95 1010.7
20260510024527 48 0 0.0 0.0 0.00 0.06 0.06 94 1010.6
20260510023030 48 0 0.0 0.0 0.00 0.06 0.06 93 1010.6
20260510021535 48 0 0.0 0.0 0.00 0.06 0.06 92 1010.6
20260510020032 48 0 0.0 0.0 0.00 0.06 0.06 92 1010.6
20260510014531 49 0 0.0 0.0 0.00 0.06 0.06 91 1010.5
20260510013032 50 0 0.0 0.0 0.00 0.06 0.06 91 1010.6
20260510011530 50 0 0.0 0.0 0.00 0.06 0.06 90 1010.5
20260510010028 51 0 0.0 0.0 0.00 0.06 0.06 90 1010.4
20260510004528 51 0 0.0 0.0 0.00 0.06 0.06 90 1010.2
20260510003033 52 0 0.0 0.0 0.00 0.06 0.06 90 1010.0
20260510001538 53 0 0.0 0.0 0.00 0.06 0.06 90 1010.0
20260510000028 54 0 0.0 0.0 0.00 0.06 0.06 90 1009.9
20260509234530 54 0 0.0 0.0 0.00 0.06 0.06 89 1010.0
20260509233030 55 0 0.0 0.0 0.00 0.06 0.06 90 1010.0
20260509231528 55 0 0.0 0.0 0.00 0.06 0.06 89 1009.9
20260509230027 55 0 0.0 0.0 0.00 0.06 0.06 88 1010.0
20260509224530 55 0 0.0 1.7 0.00 0.06 0.06 88 1009.9
20260509223030 55 0 0.0 4.3 0.00 0.06 0.06 89 1009.9
20260509221527 55 0 0.0 2.6 0.00 0.06 0.06 88 1009.8
20260509220028 56 0 0.0 2.6 0.00 0.06 0.06 89 1010.0
20260509214537 56 0 0.0 0.0 0.00 0.06 0.06 89 1010.1
20260509213029 56 0 0.0 0.0 0.01 0.06 0.06 89 1010.1
20260509211529 55 0 0.0 0.0 0.01 0.06 0.06 90 1010.1
20260509210028 55 0 0.0 0.0 0.03 0.06 0.06 90 1010.2
20260509204537 55 0 0.0 0.0 0.03 0.06 0.06 89 1009.9
20260509203027 56 0 0.0 0.0 0.03 0.05 0.05 88 1010.1
20260509201528 56 0 0.0 0.0 0.03 0.05 0.05 87 1009.9
20260509200037 56 0 0.0 3.5 0.01 0.03 0.03 88 1010.2
20260509194537 56 0 0.9 3.5 0.00 0.02 0.02 87 1010.3
20260509193039 56 0 0.0 5.2 0.01 0.02 0.02 87 1010.7
20260509191530 57 0 0.0 3.5 0.01 0.02 0.02 88 1011.0
20260509190028 57 0 0.0 2.6 0.01 0.02 0.02 87 1010.9
20260509184533 57 281 0.0 2.6 0.01 0.02 0.02 86 1011.0
20260509183030 58 0 0.0 7.0 0.00 0.01 0.01 84 1011.1
20260509181529 58 283 0.9 3.5 0.00 0.01 0.01 83 1011.2
20260509180028 58 272 0.0 2.6 0.00 0.01 0.01 82 1011.1
20260509174530 58 0 0.0 3.5 0.01 0.01 0.01 80 1010.9
20260509173027 58 0 0.0 2.6 0.01 0.01 0.01 81 1010.9
20260509171530 59 0 0.0 6.1 0.01 0.01 0.01 80 1011.2
20260509170033 60 302 0.9 3.5 0.01 0.01 0.01 80 1011.1
20260509164528 60 0 0.9 5.2 0.00 0.00 0.00 78 1011.1
20260509163030 62 265 0.9 6.1 0.00 0.00 0.00 72 1011.1
20260509161528 63 256 1.7 7.0 0.00 0.00 0.00 68 1011.2